Tracking 17636 objects as of 30-April-2016
HD Live streaming from Space Station
objects crossing your sky now

INTELSAT 501

Track INTELSAT 501 now!
INTELSAT 501 is classified as:


NORAD ID: 12474
Int'l Code: 1981-050A
Perigee: 36,177.1 km
Apogee: 36,215.9 km
Inclination: 15.2 °
Period: 1,456.7 minutes
Semi major axis: 42567 km
RCS: 3.981 m2 (large)
Launch date: May 23, 1981
Source: International Telecommunications Satellite Organization (ITSO)
Launch site: AIR FORCE EASTERN TEST RANGE (AFETR)
Your satellite tracking list
Your tracking list is empty





NASA's NSSDC Master Catalog

Two Line Element Set (TLE):
1 12474U 81050A   16118.53935051 -.00000053 +00000-0 +00000-0 0  9999
2 12474 015.2186 356.7143 0004564 180.0321 146.1149 00.98852100101063
Source of the keplerian elements: AFSPC

N2YO: 485